Flag for Italy Weather past 2 weeks in Trieste, Italy

Now
48 °F

Overcast.


Feels Like: 48 °F
Forecast: 41 / 51 °F
Wind: No wind

Location: Trieste

Current Time: Dec 25, 2014 at 7:41:08 PM

Latest Report: Dec 25, 2014 at 7:00 PM


Visibility: 6 mi

Pressure: 30.14 "Hg

Humidity: 82%

Dew point: 43 °F

Location of TriesteLocation

Historic Weather in Trieste — Graph

°F

Trieste temperature yesterday

Maximum temperature yesterday: 66 °F (at 9:00 PM)
Minimum temperature yesterday: 45 °F (at 1:00 AM)
Average temperature yesterday: 48 °F

Past Weeks' High & Low Weather Summary

 TemperatureHumidityPressure
High66 °F (Dec 24, 9:00 PM)97% (Dec 13, 9:00 AM)30.46 "Hg (Dec 13, 9:00 AM)
Low39 °F (Dec 12, 5:00 AM)6% (Dec 12, 3:00 AM)29.75 "Hg (Dec 16, 10:00 PM)
Average51 °F75%30.16 "Hg
* Reported Dec 10 6:00 PM — Dec 25 6:00 PM, Trieste, Weather by CustomWeather, © 2014

Note: Actual official high and low records may vary slightly from our data, if they occured in-between our weather recording intervals... More about our weather records

Advertising

Trieste weather history for previous 24 hours

 ConditionsComfort  
Time TempWeatherWind HumidityBarometerVisibility
6:00 PM
Dec 25
48 °FFog.3 mph81%30.14 "Hg2 mi
5:00 PM48 °FFog.1 mph80%30.14 "Hg2 mi
4:00 PM48 °FFog.No wind77%30.15 "Hg2 mi
3:00 PM49 °FFog.1 mph76%30.16 "Hg2 mi
2:00 PM49 °FFog.3 mph76%30.17 "Hg2 mi
1:00 PM49 °FFog.3 mph80%30.18 "Hg2 mi
12:00 PM49 °FFog.5 mph81%30.20 "Hg2 mi
11:00 AM50 °FFog.1 mph80%30.21 "Hg2 mi
10:00 AM49 °FFog.2 mph84%30.21 "Hg2 mi
9:00 AM48 °FOvercast.1 mph84%30.21 "Hg2 mi
8:00 AM48 °FOvercast.1 mph82%30.20 "Hg2 mi
7:00 AM49 °FOvercast.2 mph82%30.20 "Hg6 mi
6:00 AM49 °FOvercast.6 mph85%30.20 "Hg6 mi
5:00 AM49 °FOvercast.No wind89%30.20 "Hg6 mi
2:00 AM48 °FOvercast.2 mph90%30.23 "Hg6 mi
1:00 AM48 °FOvercast.No wind90%30.25 "Hg2 mi
12:00 AM48 °FOvercast.2 mph90%30.25 "Hg6 mi
11:00 PM
Dec 24
48 °FOvercast.2 mph88%30.27 "Hg6 mi
10:00 PM48 °FOvercast.1 mph86%30.27 "Hg6 mi
9:00 PM66 °FOvercast.2 mph89%30.27 "Hg6 mi
8:00 PM48 °FOvercast.3 mph88%30.27 "Hg6 mi
7:00 PM47 °FOvercast.2 mph87%30.26 "Hg6 mi
Weather by CustomWeather, © 2014

See weather overviewHow to use our weather pages